+ View the NASA Portal
+ Center for Near-Earth Object Studies
IMPORTANT:
The SSD Announcement email list is now available. Major changes are coming in the near future, including possible hostname and/or URL changes. To be notified of such changes, subscribe to this email list.
Please visit
this page
for more details.
Don't show this message again
JPL Small-Body Database Browser
Search:
[
help
]
277817 (2006 GT)
Classification:
Main-belt Asteroid
SPK-ID:
2277817
[
Ephemeris
|
Orbit Diagram
|
Orbital Elements
|
Mission Design
|
Physical Parameters
|
Discovery Circumstances
|
Close-Approach Data
]
[ show orbit diagram ]
Orbital Elements at Epoch 2458600.5 (2019-Apr-27.0) TDB
Reference:
JPL 7
(heliocentric ecliptic J2000)
Element
Value
Uncertainty (1-sigma)
Units
e
.1255306243837642
9.2224e-08
a
3.199659429520407
7.3055e-08
au
q
2.798004183517311
3.136e-07
au
i
24.63509837296626
1.4242e-05
deg
node
15.9705461804495
2.4029e-05
deg
peri
91.9608687339922
5.7826e-05
deg
M
169.2647318421742
5.0047e-05
deg
t
p
2457617.580308653213
(2016-Aug-17.08030865)
0.0002963
TDB
period
2090.518710151511
5.72
7.1597e-05
1.96e-07
d
yr
n
.1722060645771062
5.8978e-09
deg/d
Q
3.601314675523502
8.2226e-08
au
Orbit Determination Parameters
# obs. used (total)
100
data-arc span
8977 days (24.58 yr)
first obs. used
1992-09-24
last obs. used
2017-04-23
planetary ephem.
DE431
SB-pert. ephem.
SB431-N16
condition code
0
norm. resid. RMS
.62285
source
ORB
producer
Otto Matic
solution date
2018-Oct-04 10:26:52
Additional Information
Earth MOID
= 1.94621 au
Jupiter MOID
= 1.72543 au
T_jup
= 3.041
[ show covariance matrix ]
[
Ephemeris
|
Orbit Diagram
|
Orbital Elements
|
Mission Design
|
Physical Parameters
|
Discovery Circumstances
|
Close-Approach Data
]
Physical Parameter Table
Parameter
Symbol
Value
Units
Sigma
Reference
Notes
absolute magnitude
H
15.9
n/a
MPO310779
277817 (2006 GT)
Discovered 2006-Apr-02 by Sarneczky, K. at Piszkesteto
Reference:
20110517/Numbers.arc
Last Updated:
2011-05-20
[ show close-approach data ]
Alternate Designations
2006 GT
= 2010 AR82
[
Ephemeris
|
Orbit Diagram
|
Orbital Elements
|
Mission Design
|
Physical Parameters
|
Discovery Circumstances
|
Close-Approach Data
]
2019-Dec-14 17:36 UT
(server date/time)
Site Manager:
Ryan S. Park
Webmaster
:
Alan B. Chamberlin